Hourly Weather Rukavec

Today, 18 April, Sunday

Time Temperature Precipitation Wind Pressure Humidity
00:00 +8°C° 0 mm 3 mps 748 mmHg 85%
01:00 +7°C° 0 mm 3 mps 748 mmHg 86%
02:00 +7°C° 0 mm 3 mps 748 mmHg 86%
03:00 +5°C° 0 mm 3 mps 748 mmHg 84%
04:00 +5°C° 0 mm 3 mps 748 mmHg 82%
05:00 +4°C° 0 mm 3 mps 748 mmHg 81%
06:00 +5°C° 0 mm 4 mps 749 mmHg 74%
07:00 +6°C° 0 mm 4 mps 749 mmHg 68%
08:00 +7°C° 0 mm 4 mps 749 mmHg 61%
09:00 +10°C° 0 mm 4 mps 749 mmHg 56%
10:00 +11°C° 0 mm 4 mps 749 mmHg 50%
11:00 +12°C° 0 mm 5 mps 749 mmHg 45%
12:00 +13°C° 0 mm 5 mps 749 mmHg 43%
13:00 +14°C° 0 mm 5 mps 749 mmHg 41%
14:00 +14°C° 0 mm 4 mps 749 mmHg 40%
15:00 +14°C° 0 mm 4 mps 749 mmHg 42%
16:00 +14°C° 0 mm 4 mps 749 mmHg 43%
17:00 +13°C° 0 mm 3 mps 749 mmHg 45%
18:00 +12°C° 0 mm 3 mps 749 mmHg 53%
19:00 +10°C° 0 mm 3 mps 749 mmHg 60%
20:00 +8°C° 0 mm 2 mps 749 mmHg 67%
21:00 +8°C° 0 mm 2 mps 749 mmHg 69%
22:00 +7°C° 0 mm 3 mps 750 mmHg 71%
23:00 +7°C° 0 mm 3 mps 750 mmHg 72%

Tomorrow, 19 April, Monday

Time Temperature Precipitation Wind Pressure Humidity
00:00 +5°C° 0 mm 3 mps 750 mmHg 76%
01:00 +4°C° 0 mm 3 mps 750 mmHg 79%
02:00 +5°C° 0 mm 2 mps 750 mmHg 83%
03:00 +4°C° 0 mm 2 mps 750 mmHg 85%
04:00 +4°C° 0 mm 2 mps 750 mmHg 88%
05:00 +3°C° 0 mm 2 mps 750 mmHg 90%
06:00 +5°C° 0 mm 2 mps 751 mmHg 85%
07:00 +5°C° 0 mm 3 mps 751 mmHg 79%
08:00 +7°C° 0 mm 3 mps 751 mmHg 73%
09:00 +8°C° 0 mm 3 mps 751 mmHg 68%
10:00 +10°C° 0 mm 3 mps 751 mmHg 63%
11:00 +11°C° 0 mm 4 mps 750 mmHg 58%
12:00 +11°C° 0 mm 4 mps 750 mmHg 59%
13:00 +10°C° 0 mm 3 mps 750 mmHg 60%
14:00 +10°C° 0 mm 3 mps 750 mmHg 60%
15:00 +10°C° 0 mm 3 mps 750 mmHg 63%
16:00 +9°C° 0 mm 3 mps 750 mmHg 66%
17:00 +9°C° 0 mm 3 mps 750 mmHg 69%
18:00 +8°C° 0 mm 3 mps 750 mmHg 71%
19:00 +7°C° 0 mm 3 mps 750 mmHg 74%
20:00 +5°C° 0 mm 3 mps 750 mmHg 76%
21:00 +6°C° 0 mm 2 mps 750 mmHg 76%
22:00 +6°C° 0 mm 2 mps 750 mmHg 76%
23:00 +6°C° 0 mm 2 mps 750 mmHg 76%

Day after tomorrow, 20 April, Tuesday

Time Temperature Precipitation Wind Pressure Humidity
00:00 +6°C° 0 mm 2 mps 749 mmHg 75%
01:00 +5°C° 0 mm 2 mps 749 mmHg 75%
02:00 +5°C° 0 mm 2 mps 749 mmHg 74%
03:00 +5°C° 0 mm 2 mps 748 mmHg 75%
04:00 +5°C° 0 mm 2 mps 748 mmHg 77%
05:00 +4°C° 0 mm 2 mps 748 mmHg 78%
06:00 +5°C° 0 mm 2 mps 748 mmHg 74%
07:00 +4°C° 0 mm 3 mps 747 mmHg 69%
08:00 +5°C° 0 mm 3 mps 747 mmHg 65%
09:00 +5°C° 0 mm 3 mps 747 mmHg 60%
10:00 +7°C° 0 mm 3 mps 746 mmHg 56%
11:00 +6°C° 0 mm 4 mps 746 mmHg 52%
12:00 +6°C° 0 mm 4 mps 746 mmHg 56%
13:00 +6°C° 0 mm 4 mps 745 mmHg 60%
14:00 +6°C° 0 mm 4 mps 745 mmHg 65%
15:00 +5°C° 0 mm 4 mps 745 mmHg 67%
16:00 +5°C° 0 mm 4 mps 744 mmHg 70%
17:00 +4°C° 0 mm 3 mps 744 mmHg 73%
18:00 +4°C° 0 mm 3 mps 743 mmHg 78%
19:00 +3°C° 0 mm 3 mps 743 mmHg 82%
20:00 +4°C° 0 mm 2 mps 743 mmHg 87%
21:00 +3°C° 0 mm 2 mps 742 mmHg 90%
22:00 +3°C° 0 mm 2 mps 742 mmHg 92%
23:00 +3°C° 0 mm 2 mps 741 mmHg 95%

21 April, Wednesday

Time Temperature Precipitation Wind Pressure Humidity
00:00 +3°C° 0 mm 2 mps 740 mmHg 95%
01:00 +2°C° 0 mm 3 mps 739 mmHg 95%
02:00 +2°C° 0 mm 3 mps 739 mmHg 94%
03:00 +2°C° 0 mm 3 mps 738 mmHg 95%
04:00 +2°C° 0 mm 3 mps 737 mmHg 95%
05:00 +2°C° 0 mm 3 mps 737 mmHg 95%
06:00 +2°C° 0.2 mm 3 mps 736 mmHg 95%
07:00 +2°C° 0.2 mm 3 mps 736 mmHg 95%
08:00 +2°C° 0.2 mm 3 mps 735 mmHg 95%
09:00 +2°C° 0.2 mm 3 mps 735 mmHg 96%
10:00 +2°C° 0.2 mm 3 mps 735 mmHg 96%
11:00 +2°C° 0.2 mm 3 mps 735 mmHg 96%
12:00 +3°C° 0.1 mm 3 mps 735 mmHg 95%
13:00 +3°C° 0.1 mm 3 mps 736 mmHg 94%
14:00 +3°C° 0.1 mm 3 mps 736 mmHg 93%
15:00 +4°C° 0.1 mm 3 mps 736 mmHg 89%
16:00 +4°C° 0.1 mm 3 mps 736 mmHg 85%
17:00 +5°C° 0.1 mm 3 mps 737 mmHg 81%
18:00 +4°C° 0 mm 3 mps 737 mmHg 81%
19:00 +4°C° 0 mm 3 mps 737 mmHg 81%
20:00 +4°C° 0 mm 2 mps 737 mmHg 82%
21:00 +4°C° 0 mm 2 mps 738 mmHg 84%
22:00 +3°C° 0 mm 2 mps 738 mmHg 86%
23:00 +3°C° 0 mm 2 mps 738 mmHg 89%

22 April, Thursday

Time Temperature Precipitation Wind Pressure Humidity
00:00 +3°C° 0 mm 2 mps 739 mmHg 88%
01:00 +2°C° 0 mm 2 mps 739 mmHg 88%
02:00 +2°C° 0 mm 2 mps 739 mmHg 87%
03:00 +2°C° 0 mm 2 mps 740 mmHg 88%
04:00 +2°C° 0 mm 2 mps 740 mmHg 89%
05:00 +1°C° 0 mm 2 mps 741 mmHg 89%
06:00 +3°C° 0 mm 2 mps 741 mmHg 83%
07:00 +5°C° 0 mm 2 mps 741 mmHg 77%
08:00 +7°C° 0 mm 2 mps 742 mmHg 71%
09:00 +9°C° 0 mm 2 mps 742 mmHg 64%
10:00 +10°C° 0 mm 2 mps 742 mmHg 58%
11:00 +13°C° 0 mm 2 mps 743 mmHg 51%
12:00 +13°C° 0 mm 2 mps 743 mmHg 48%
13:00 +14°C° 0 mm 2 mps 743 mmHg 45%
14:00 +14°C° 0 mm 2 mps 743 mmHg 42%
15:00 +14°C° 0 mm 2 mps 743 mmHg 45%
16:00 +14°C° 0 mm 2 mps 743 mmHg 48%
17:00 +14°C° 0 mm 2 mps 743 mmHg 51%
18:00 +12°C° 0 mm 2 mps 743 mmHg 60%
19:00 +10°C° 0 mm 2 mps 743 mmHg 70%
20:00 +8°C° 0 mm 2 mps 743 mmHg 79%
21:00 +8°C° 0.2 mm 2 mps 744 mmHg 83%
22:00 +8°C° 0.2 mm 2 mps 744 mmHg 87%
23:00 +8°C° 0.2 mm 2 mps 744 mmHg 92%

23 April, Friday

Time Temperature Precipitation Wind Pressure Humidity
00:00 +8°C° 0 mm 1 mps 744 mmHg 93%
01:00 +7°C° 0 mm 1 mps 744 mmHg 94%
02:00 +6°C° 0 mm 1 mps 744 mmHg 95%
03:00 +6°C° 0 mm 1 mps 744 mmHg 94%
04:00 +6°C° 0 mm 1 mps 744 mmHg 94%
05:00 +6°C° 0 mm 1 mps 744 mmHg 93%
06:00 +6°C° 0.1 mm 1 mps 744 mmHg 92%
07:00 +6°C° 0.1 mm 2 mps 744 mmHg 90%
08:00 +6°C° 0.1 mm 2 mps 743 mmHg 89%
09:00 +6°C° 0.8 mm 2 mps 743 mmHg 90%
10:00 +5°C° 0.8 mm 3 mps 744 mmHg 90%
11:00 +5°C° 0.8 mm 3 mps 744 mmHg 91%
12:00 +4°C° 0.3 mm 3 mps 744 mmHg 92%
13:00 +4°C° 0.3 mm 4 mps 744 mmHg 93%
14:00 +3°C° 0.3 mm 4 mps 745 mmHg 94%
15:00 +3°C° 0.1 mm 3 mps 745 mmHg 93%
16:00 +3°C° 0.1 mm 3 mps 745 mmHg 91%
17:00 +4°C° 0.1 mm 2 mps 746 mmHg 90%
18:00 +4°C° 0 mm 2 mps 746 mmHg 91%
19:00 +4°C° 0 mm 2 mps 746 mmHg 91%
20:00 +5°C° 0 mm 1 mps 747 mmHg 92%
21:00 +3°C° 0 mm 2 mps 747 mmHg 93%
22:00 +3°C° 0 mm 2 mps 747 mmHg 93%
23:00 +1°C° 0 mm 3 mps 748 mmHg 94%
Show more